owner,sensor,date,latitude,longitude,air_pressure(mBar),qcFlag 
TABS,ioos:station:wmo:42047:1,2017-06-01T00:00:00Z,27.8966,-93.5973,1014.91,11111222 
TABS,ioos:station:wmo:42047:1,2017-06-01T00:30:00Z,27.8966,-93.5973,1015.51,11111222 
TABS,ioos:station:wmo:42047:1,2017-06-01T01:00:00Z,27.8966,-93.5973,1015.76,11111222 
TABS,ioos:station:wmo:42047:1,2017-06-01T01:30:00Z,27.8966,-93.5973,1015.2,11111222 
TABS,ioos:station:wmo:42047:1,2017-06-01T02:00:00Z,27.8966,-93.5973,1015.61,11111222 
TABS,ioos:station:wmo:42047:1,2017-06-01T02:30:00Z,27.8966,-93.5973,1015.7,11111222 
TABS,ioos:station:wmo:42047:1,2017-06-01T03:00:00Z,27.8966,-93.5973,1016.04,11111222 
TABS,ioos:station:wmo:42047:1,2017-06-01T03:30:00Z,27.8966,-93.5973,1016.2,11111222 
TABS,ioos:station:wmo:42047:1,2017-06-01T04:00:00Z,27.8966,-93.5973,1016.32,11111222 
TABS,ioos:station:wmo:42047:1,2017-06-01T04:30:00Z,27.8966,-93.5973,1016.24,11111222 
TABS,ioos:station:wmo:42047:1,2017-06-01T05:00:00Z,27.8966,-93.5973,1016.55,11111222 
TABS,ioos:station:wmo:42047:1,2017-06-01T05:30:00Z,27.8966,-93.5973,1016.3,11111222 
TABS,ioos:station:wmo:42047:1,2017-06-01T06:00:00Z,27.8966,-93.5973,1016.16,11111222 
TABS,ioos:station:wmo:42047:1,2017-06-01T06:30:00Z,27.8966,-93.5973,1015.92,11111222 
TABS,ioos:station:wmo:42047:1,2017-06-01T07:00:00Z,27.8966,-93.5973,1015.85,11111222 
TABS,ioos:station:wmo:42047:1,2017-06-01T07:30:00Z,27.8966,-93.5973,1015.36,11111222 
TABS,ioos:station:wmo:42047:1,2017-06-01T08:00:00Z,27.8966,-93.5973,1014.92,11111222 
TABS,ioos:station:wmo:42047:1,2017-06-01T08:30:00Z,27.8966,-93.5973,1014.6,11111222 
TABS,ioos:station:wmo:42047:1,2017-06-01T09:00:00Z,27.8966,-93.5973,1014.47,11111222 
TABS,ioos:station:wmo:42047:1,2017-06-01T09:30:00Z,27.8966,-93.5973,1014.15,11111222 
TABS,ioos:station:wmo:42047:1,2017-06-01T10:00:00Z,27.8966,-93.5973,1014.74,11111222 
TABS,ioos:station:wmo:42047:1,2017-06-01T10:30:00Z,27.8966,-93.5973,1015.03,11111222 
TABS,ioos:station:wmo:42047:1,2017-06-01T11:00:00Z,27.8966,-93.5973,1015.05,11111222 
TABS,ioos:station:wmo:42047:1,2017-06-01T11:30:00Z,27.8966,-93.5973,1015.11,11111222 
TABS,ioos:station:wmo:42047:1,2017-06-01T12:00:00Z,27.8966,-93.5973,1015.26,11111222 
TABS,ioos:station:wmo:42047:1,2017-06-01T12:30:00Z,27.8966,-93.5973,1015.48,11111222 
TABS,ioos:station:wmo:42047:1,2017-06-01T13:00:00Z,27.8966,-93.5973,1015.6,11111222 
TABS,ioos:station:wmo:42047:1,2017-06-01T13:30:00Z,27.8966,-93.5973,1015.71,11111222 
TABS,ioos:station:wmo:42047:1,2017-06-01T14:00:00Z,27.8966,-93.5973,1016.05,11111222 
TABS,ioos:station:wmo:42047:1,2017-06-01T14:30:00Z,27.8966,-93.5973,1015.85,11111222 
TABS,ioos:station:wmo:42047:1,2017-06-01T15:00:00Z,27.8966,-93.5973,1016.14,11111222 
TABS,ioos:station:wmo:42047:1,2017-06-01T15:30:00Z,27.8966,-93.5973,1016.2,11111222 
TABS,ioos:station:wmo:42047:1,2017-06-01T16:00:00Z,27.8966,-93.5973,1015.96,11111222 
TABS,ioos:station:wmo:42047:1,2017-06-01T16:30:00Z,27.8966,-93.5973,1015.89,11111222 
TABS,ioos:station:wmo:42047:1,2017-06-01T17:00:00Z,27.8966,-93.5973,1015.71,11111222 
TABS,ioos:station:wmo:42047:1,2017-06-01T17:30:00Z,27.8966,-93.5973,1015.43,11111222 
TABS,ioos:station:wmo:42047:1,2017-06-01T18:00:00Z,27.8966,-93.5973,1014.92,11111222 
TABS,ioos:station:wmo:42047:1,2017-06-01T18:30:00Z,27.8966,-93.5973,1014.74,11111222 
TABS,ioos:station:wmo:42047:1,2017-06-01T19:00:00Z,27.8966,-93.5973,1014.7,11111222 
TABS,ioos:station:wmo:42047:1,2017-06-01T19:30:00Z,27.8966,-93.5973,1014.22,11111222 
TABS,ioos:station:wmo:42047:1,2017-06-01T20:00:00Z,27.8966,-93.5973,1013.64,11111222 
TABS,ioos:station:wmo:42047:1,2017-06-01T20:30:00Z,27.8966,-93.5973,1013.56,11111222 
TABS,ioos:station:wmo:42047:1,2017-06-01T21:00:00Z,27.8966,-93.5973,1013.43,11111222 
TABS,ioos:station:wmo:42047:1,2017-06-01T21:30:00Z,27.8966,-93.5973,1013.16,11111222 
TABS,ioos:station:wmo:42047:1,2017-06-01T22:00:00Z,27.8966,-93.5973,1012.89,11111222 
TABS,ioos:station:wmo:42047:1,2017-06-01T22:30:00Z,27.8966,-93.5973,1012.74,11111222 
TABS,ioos:station:wmo:42047:1,2017-06-01T23:00:00Z,27.8966,-93.5973,1012.59,11111222 
TABS,ioos:station:wmo:42047:1,2017-06-01T23:30:00Z,27.8966,-93.5973,1012.71,11111222 
TABS,ioos:station:wmo:42047:1,2017-06-02T00:00:00Z,27.8966,-93.5973,1012.63,11111222 
TABS,ioos:station:wmo:42047:1,2017-06-02T00:30:00Z,27.8966,-93.5973,1012.62,11111222 
TABS,ioos:station:wmo:42047:1,2017-06-02T01:00:00Z,27.8966,-93.5973,1012.8,11111222 
TABS,ioos:station:wmo:42047:1,2017-06-02T01:30:00Z,27.8966,-93.5973,1012.75,11111222 
TABS,ioos:station:wmo:42047:1,2017-06-02T02:00:00Z,27.8966,-93.5973,1012.71,11111222 
TABS,ioos:station:wmo:42047:1,2017-06-02T02:30:00Z,27.8966,-93.5973,1012.96,11111222 
TABS,ioos:station:wmo:42047:1,2017-06-02T03:00:00Z,27.8966,-93.5973,1013.16,11111222 
TABS,ioos:station:wmo:42047:1,2017-06-02T03:30:00Z,27.8966,-93.5973,1013.19,11111222 
TABS,ioos:station:wmo:42047:1,2017-06-02T04:00:00Z,27.8966,-93.5973,1013.26,11111222 
TABS,ioos:station:wmo:42047:1,2017-06-02T04:30:00Z,27.8966,-93.5973,1013.16,11111222 
TABS,ioos:station:wmo:42047:1,2017-06-02T05:00:00Z,27.8966,-93.5973,1012.91,11111222 
TABS,ioos:station:wmo:42047:1,2017-06-02T05:30:00Z,27.8966,-93.5973,1013.01,11111222 
TABS,ioos:station:wmo:42047:1,2017-06-02T06:00:00Z,27.8966,-93.5973,1013.16,11111222 
TABS,ioos:station:wmo:42047:1,2017-06-02T06:30:00Z,27.8966,-93.5973,1012.83,11111222 
TABS,ioos:station:wmo:42047:1,2017-06-02T07:00:00Z,27.8966,-93.5973,1012.78,11111222 
TABS,ioos:station:wmo:42047:1,2017-06-02T07:30:00Z,27.8966,-93.5973,1012.6,11111222 
TABS,ioos:station:wmo:42047:1,2017-06-02T08:00:00Z,27.8966,-93.5973,1012.61,11111222 
TABS,ioos:station:wmo:42047:1,2017-06-02T08:30:00Z,27.8966,-93.5973,1012.46,11111222 
TABS,ioos:station:wmo:42047:1,2017-06-02T09:00:00Z,27.8966,-93.5973,1012.25,11111222 
TABS,ioos:station:wmo:42047:1,2017-06-02T09:30:00Z,27.8966,-93.5973,1012.07,11111222 
TABS,ioos:station:wmo:42047:1,2017-06-02T10:00:00Z,27.8966,-93.5973,1011.97,11111222 
TABS,ioos:station:wmo:42047:1,2017-06-02T10:30:00Z,27.8966,-93.5973,1012.05,11111222 
TABS,ioos:station:wmo:42047:1,2017-06-02T11:00:00Z,27.8966,-93.5973,1012.07,11111222 
TABS,ioos:station:wmo:42047:1,2017-06-02T11:30:00Z,27.8966,-93.5973,1012.49,11111222 
TABS,ioos:station:wmo:42047:1,2017-06-02T12:00:00Z,27.8966,-93.5973,1012.62,11111222 
TABS,ioos:station:wmo:42047:1,2017-06-02T12:30:00Z,27.8966,-93.5973,1012.84,11111222 
TABS,ioos:station:wmo:42047:1,2017-06-02T13:00:00Z,27.8966,-93.5973,1013.12,11111222 
TABS,ioos:station:wmo:42047:1,2017-06-02T13:30:00Z,27.8966,-93.5973,1013.57,11111222 
TABS,ioos:station:wmo:42047:1,2017-06-02T14:00:00Z,27.8966,-93.5973,1013.89,11111222 
TABS,ioos:station:wmo:42047:1,2017-06-02T14:30:00Z,27.8966,-93.5973,1014.01,11111222 
TABS,ioos:station:wmo:42047:1,2017-06-02T15:00:00Z,27.8966,-93.5973,1014.06,11111222 
TABS,ioos:station:wmo:42047:1,2017-06-02T15:30:00Z,27.8966,-93.5973,1014.04,11111222 
TABS,ioos:station:wmo:42047:1,2017-06-02T16:00:00Z,27.8966,-93.5973,1014.01,11111222 
TABS,ioos:station:wmo:42047:1,2017-06-02T16:30:00Z,27.8966,-93.5973,1013.83,11111222 
TABS,ioos:station:wmo:42047:1,2017-06-02T17:00:00Z,27.8966,-93.5973,1013.78,11111222 
TABS,ioos:station:wmo:42047:1,2017-06-02T17:30:00Z,27.8966,-93.5973,1013.36,11111222 
TABS,ioos:station:wmo:42047:1,2017-06-02T18:00:00Z,27.8966,-93.5973,1013.04,11111222 
TABS,ioos:station:wmo:42047:1,2017-06-02T18:30:00Z,27.8966,-93.5973,1012.81,11111222 
TABS,ioos:station:wmo:42047:1,2017-06-02T19:00:00Z,27.8966,-93.5973,1012.74,11111222 
TABS,ioos:station:wmo:42047:1,2017-06-02T19:30:00Z,27.8966,-93.5973,1012.51,11111222 
TABS,ioos:station:wmo:42047:1,2017-06-02T20:00:00Z,27.8966,-93.5973,1012.36,11111222 
TABS,ioos:station:wmo:42047:1,2017-06-02T20:30:00Z,27.8966,-93.5973,1012.25,11111222 
TABS,ioos:station:wmo:42047:1,2017-06-02T21:00:00Z,27.8966,-93.5973,1012.43,11111222 
TABS,ioos:station:wmo:42047:1,2017-06-02T21:30:00Z,27.8966,-93.5973,1012.1,11111222 
TABS,ioos:station:wmo:42047:1,2017-06-02T22:00:00Z,27.8966,-93.5973,1011.51,11111222 
TABS,ioos:station:wmo:42047:1,2017-06-02T22:30:00Z,27.8966,-93.5973,1011.59,11111222 
TABS,ioos:station:wmo:42047:1,2017-06-02T23:00:00Z,27.8966,-93.5973,1011.37,11111222 
TABS,ioos:station:wmo:42047:1,2017-06-02T23:30:00Z,27.8966,-93.5973,1011.26,11111222 
TABS,ioos:station:wmo:42047:1,2017-06-03T00:00:00Z,27.8966,-93.5973,1011.13,11111222 
TABS,ioos:station:wmo:42047:1,2017-06-03T00:30:00Z,27.8966,-93.5973,1010.94,11111222 
TABS,ioos:station:wmo:42047:1,2017-06-03T01:00:00Z,27.8966,-93.5973,1011.08,11111222 
TABS,ioos:station:wmo:42047:1,2017-06-03T01:30:00Z,27.8966,-93.5973,1011.11,11111222 
TABS,ioos:station:wmo:42047:1,2017-06-03T02:00:00Z,27.8966,-93.5973,1011.37,11111222 
TABS,ioos:station:wmo:42047:1,2017-06-03T02:30:00Z,27.8966,-93.5973,1011.31,11111222 
TABS,ioos:station:wmo:42047:1,2017-06-03T03:00:00Z,27.8966,-93.5973,1011.63,11111222 
TABS,ioos:station:wmo:42047:1,2017-06-03T03:30:00Z,27.8966,-93.5973,1012.33,11111222 
TABS,ioos:station:wmo:42047:1,2017-06-03T04:00:00Z,27.8966,-93.5973,1012.38,11111222 
TABS,ioos:station:wmo:42047:1,2017-06-03T04:30:00Z,27.8966,-93.5973,1012.39,11111222 
TABS,ioos:station:wmo:42047:1,2017-06-03T05:00:00Z,27.8966,-93.5973,1012.15,11111222 
TABS,ioos:station:wmo:42047:1,2017-06-03T05:30:00Z,27.8966,-93.5973,1012.06,11111222 
TABS,ioos:station:wmo:42047:1,2017-06-03T06:00:00Z,27.8966,-93.5973,1011.71,11111222 
TABS,ioos:station:wmo:42047:1,2017-06-03T06:30:00Z,27.8966,-93.5973,1011.5,11111222 
TABS,ioos:station:wmo:42047:1,2017-06-03T07:00:00Z,27.8966,-93.5973,1011.21,11111222 
TABS,ioos:station:wmo:42047:1,2017-06-03T07:30:00Z,27.8966,-93.5973,1011.05,11111222 
TABS,ioos:station:wmo:42047:1,2017-06-03T08:00:00Z,27.8966,-93.5973,1010.93,11111222 
TABS,ioos:station:wmo:42047:1,2017-06-03T08:30:00Z,27.8966,-93.5973,1011.2,11111222 
TABS,ioos:station:wmo:42047:1,2017-06-03T09:00:00Z,27.8966,-93.5973,1011.24,11111222 
TABS,ioos:station:wmo:42047:1,2017-06-03T09:30:00Z,27.8966,-93.5973,1011.46,11111222 
TABS,ioos:station:wmo:42047:1,2017-06-03T10:00:00Z,27.8966,-93.5973,1011.51,11111222 
TABS,ioos:station:wmo:42047:1,2017-06-03T10:30:00Z,27.8966,-93.5973,1011.68,11111222 
TABS,ioos:station:wmo:42047:1,2017-06-03T11:00:00Z,27.8966,-93.5973,1011.8,11111222 
TABS,ioos:station:wmo:42047:1,2017-06-03T11:30:00Z,27.8966,-93.5973,1012.23,11111222 
TABS,ioos:station:wmo:42047:1,2017-06-03T12:00:00Z,27.8966,-93.5973,1012.64,11111222 
TABS,ioos:station:wmo:42047:1,2017-06-03T12:30:00Z,27.8966,-93.5973,1012.98,11111222 
TABS,ioos:station:wmo:42047:1,2017-06-03T13:00:00Z,27.8966,-93.5973,1013.36,11111222 
TABS,ioos:station:wmo:42047:1,2017-06-03T13:30:00Z,27.8966,-93.5973,1013.48,11111222 
TABS,ioos:station:wmo:42047:1,2017-06-03T14:00:00Z,27.8966,-93.5973,1013.4,11111222 
TABS,ioos:station:wmo:42047:1,2017-06-03T14:30:00Z,27.8966,-93.5973,1013.71,11111222 
TABS,ioos:station:wmo:42047:1,2017-06-03T15:00:00Z,27.8966,-93.5973,1013.74,11111222 
TABS,ioos:station:wmo:42047:1,2017-06-03T15:30:00Z,27.8966,-93.5973,1013.39,11111222 
TABS,ioos:station:wmo:42047:1,2017-06-03T16:00:00Z,27.8966,-93.5973,1013.06,11111222 
TABS,ioos:station:wmo:42047:1,2017-06-03T16:30:00Z,27.8966,-93.5973,1013.35,11111222 
TABS,ioos:station:wmo:42047:1,2017-06-03T17:00:00Z,27.8966,-93.5973,1013.22,11111222 
TABS,ioos:station:wmo:42047:1,2017-06-03T17:30:00Z,27.8966,-93.5973,1012.86,11111222 
TABS,ioos:station:wmo:42047:1,2017-06-03T18:00:00Z,27.8966,-93.5973,1012.56,11111222 
TABS,ioos:station:wmo:42047:1,2017-06-03T18:30:00Z,27.8966,-93.5973,1012.44,11111222 
TABS,ioos:station:wmo:42047:1,2017-06-03T19:00:00Z,27.8966,-93.5973,1012.21,11111222 
TABS,ioos:station:wmo:42047:1,2017-06-03T19:30:00Z,27.8966,-93.5973,1011.89,11111222 
TABS,ioos:station:wmo:42047:1,2017-06-03T20:00:00Z,27.8966,-93.5973,1011.83,11111222 
TABS,ioos:station:wmo:42047:1,2017-06-03T20:30:00Z,27.8966,-93.5973,1011.61,11111222 
TABS,ioos:station:wmo:42047:1,2017-06-03T21:00:00Z,27.8966,-93.5973,1011.28,11111222 
TABS,ioos:station:wmo:42047:1,2017-06-03T21:30:00Z,27.8966,-93.5973,1011.14,11111222 
TABS,ioos:station:wmo:42047:1,2017-06-03T22:00:00Z,27.8966,-93.5973,1011.28,11111222 
TABS,ioos:station:wmo:42047:1,2017-06-03T22:30:00Z,27.8966,-93.5973,1010.92,11111222 
TABS,ioos:station:wmo:42047:1,2017-06-03T23:00:00Z,27.8966,-93.5973,1011.22,11111222 
TABS,ioos:station:wmo:42047:1,2017-06-03T23:30:00Z,27.8966,-93.5973,1011.05,11111222 
TABS,ioos:station:wmo:42047:1,2017-06-04T00:00:00Z,27.8966,-93.5973,1011.3,11111222 
TABS,ioos:station:wmo:42047:1,2017-06-04T00:30:00Z,27.8966,-93.5973,1011.65,11111222 
TABS,ioos:station:wmo:42047:1,2017-06-04T01:00:00Z,27.8966,-93.5973,1011.71,11111222 
TABS,ioos:station:wmo:42047:1,2017-06-04T01:30:00Z,27.8966,-93.5973,1011.92,11111222 
TABS,ioos:station:wmo:42047:1,2017-06-04T02:00:00Z,27.8966,-93.5973,1011.8,11111222 
TABS,ioos:station:wmo:42047:1,2017-06-04T02:30:00Z,27.8966,-93.5973,1012.41,11111222 
TABS,ioos:station:wmo:42047:1,2017-06-04T03:00:00Z,27.8966,-93.5973,1012.68,11111222 
TABS,ioos:station:wmo:42047:1,2017-06-04T03:30:00Z,27.8966,-93.5973,1012.58,11111222 
TABS,ioos:station:wmo:42047:1,2017-06-04T04:00:00Z,27.8966,-93.5973,1012.53,11111222 
TABS,ioos:station:wmo:42047:1,2017-06-04T04:30:00Z,27.8966,-93.5973,1012.24,11111222 
TABS,ioos:station:wmo:42047:1,2017-06-04T05:00:00Z,27.8966,-93.5973,1012.4,11111222 
TABS,ioos:station:wmo:42047:1,2017-06-04T05:30:00Z,27.8966,-93.5973,1011.91,11111222 
TABS,ioos:station:wmo:42047:1,2017-06-04T06:00:00Z,27.8966,-93.5973,1011.44,11111222 
TABS,ioos:station:wmo:42047:1,2017-06-04T06:30:00Z,27.8966,-93.5973,1011.55,11111222 
TABS,ioos:station:wmo:42047:1,2017-06-04T07:00:00Z,27.8966,-93.5973,1011.24,11111222 
TABS,ioos:station:wmo:42047:1,2017-06-04T07:30:00Z,27.8966,-93.5973,1011.35,11111222 
TABS,ioos:station:wmo:42047:1,2017-06-04T08:00:00Z,27.8966,-93.5973,1010.85,11111222 
TABS,ioos:station:wmo:42047:1,2017-06-04T08:30:00Z,27.8966,-93.5973,1010.83,11111222 
TABS,ioos:station:wmo:42047:1,2017-06-04T09:00:00Z,27.8966,-93.5973,1010.72,11111222 
TABS,ioos:station:wmo:42047:1,2017-06-04T09:30:00Z,27.8966,-93.5973,1010.45,11111222 
TABS,ioos:station:wmo:42047:1,2017-06-04T10:00:00Z,27.8966,-93.5973,1010.63,11111222 
TABS,ioos:station:wmo:42047:1,2017-06-04T10:30:00Z,27.8966,-93.5973,1010.57,11111222 
TABS,ioos:station:wmo:42047:1,2017-06-04T11:00:00Z,27.8966,-93.5973,1010.79,11111222 
TABS,ioos:station:wmo:42047:1,2017-06-04T11:30:00Z,27.8966,-93.5973,1010.69,11111222 
TABS,ioos:station:wmo:42047:1,2017-06-04T12:00:00Z,27.8966,-93.5973,1011.16,11111222 
TABS,ioos:station:wmo:42047:1,2017-06-04T12:30:00Z,27.8966,-93.5973,1011.16,11111222 
TABS,ioos:station:wmo:42047:1,2017-06-04T13:00:00Z,27.8966,-93.5973,1011.4,11111222 
TABS,ioos:station:wmo:42047:1,2017-06-04T13:30:00Z,27.8966,-93.5973,1011.27,11111222 
TABS,ioos:station:wmo:42047:1,2017-06-04T14:00:00Z,27.8966,-93.5973,1011.43,11111222 
TABS,ioos:station:wmo:42047:1,2017-06-04T14:30:00Z,27.8966,-93.5973,1011.13,11111222 
TABS,ioos:station:wmo:42047:1,2017-06-04T15:00:00Z,27.8966,-93.5973,1011.09,11111222 
TABS,ioos:station:wmo:42047:1,2017-06-04T15:30:00Z,27.8966,-93.5973,1011.34,11111222 
TABS,ioos:station:wmo:42047:1,2017-06-04T16:00:00Z,27.8966,-93.5973,1010.82,11111222 
TABS,ioos:station:wmo:42047:1,2017-06-04T16:30:00Z,27.8966,-93.5973,1011.03,11111222 
TABS,ioos:station:wmo:42047:1,2017-06-04T17:00:00Z,27.8966,-93.5973,1011.03,11111222 
TABS,ioos:station:wmo:42047:1,2017-06-04T17:30:00Z,27.8966,-93.5973,1010.59,11111222 
TABS,ioos:station:wmo:42047:1,2017-06-04T18:00:00Z,27.8966,-93.5973,1011.11,11111222 
TABS,ioos:station:wmo:42047:1,2017-06-04T18:30:00Z,27.8966,-93.5973,1011.13,11111222 
TABS,ioos:station:wmo:42047:1,2017-06-04T19:00:00Z,27.8966,-93.5973,1010.46,11111222 
TABS,ioos:station:wmo:42047:1,2017-06-04T19:30:00Z,27.8966,-93.5973,1010.32,11111222 
TABS,ioos:station:wmo:42047:1,2017-06-04T20:00:00Z,27.8966,-93.5973,1010.05,11111222 
TABS,ioos:station:wmo:42047:1,2017-06-04T20:30:00Z,27.8966,-93.5973,1010.19,11111222 
TABS,ioos:station:wmo:42047:1,2017-06-04T21:00:00Z,27.8966,-93.5973,1009.84,11111222 
TABS,ioos:station:wmo:42047:1,2017-06-04T21:30:00Z,27.8966,-93.5973,1009.64,11111222 
TABS,ioos:station:wmo:42047:1,2017-06-04T22:00:00Z,27.8966,-93.5973,1009.75,11111222 
TABS,ioos:station:wmo:42047:1,2017-06-04T22:30:00Z,27.8966,-93.5973,1009.48,11111222 
TABS,ioos:station:wmo:42047:1,2017-06-04T23:00:00Z,27.8966,-93.5973,1009.28,11111222 
TABS,ioos:station:wmo:42047:1,2017-06-04T23:30:00Z,27.8966,-93.5973,1008.95,11111222 
TABS,ioos:station:wmo:42047:1,2017-06-05T00:00:00Z,27.8966,-93.5973,1009.14,11111222 
TABS,ioos:station:wmo:42047:1,2017-06-05T00:30:00Z,27.8966,-93.5973,1009.38,11111222 
TABS,ioos:station:wmo:42047:1,2017-06-05T01:00:00Z,27.8966,-93.5973,1009.81,11111222 
TABS,ioos:station:wmo:42047:1,2017-06-05T01:30:00Z,27.8966,-93.5973,1009.91,11111222 
TABS,ioos:station:wmo:42047:1,2017-06-05T02:00:00Z,27.8966,-93.5973,1011.02,11111222 
TABS,ioos:station:wmo:42047:1,2017-06-05T02:30:00Z,27.8966,-93.5973,1010.95,11111222 
TABS,ioos:station:wmo:42047:1,2017-06-05T03:00:00Z,27.8966,-93.5973,1010.5,11111222 
TABS,ioos:station:wmo:42047:1,2017-06-05T03:30:00Z,27.8966,-93.5973,1010.8,11111222 
TABS,ioos:station:wmo:42047:1,2017-06-05T04:00:00Z,27.8966,-93.5973,1010.77,11111222 
TABS,ioos:station:wmo:42047:1,2017-06-05T04:30:00Z,27.8966,-93.5973,1009.59,11111222 
TABS,ioos:station:wmo:42047:1,2017-06-05T05:00:00Z,27.8966,-93.5973,1009.05,11111222 
TABS,ioos:station:wmo:42047:1,2017-06-05T05:30:00Z,27.8966,-93.5973,1008.93,11111222 
TABS,ioos:station:wmo:42047:1,2017-06-05T06:00:00Z,27.8966,-93.5973,1009.19,11111222 
TABS,ioos:station:wmo:42047:1,2017-06-05T06:30:00Z,27.8966,-93.5973,1009.18,11111222 
TABS,ioos:station:wmo:42047:1,2017-06-05T07:00:00Z,27.8966,-93.5973,1008.8,11111222 
TABS,ioos:station:wmo:42047:1,2017-06-05T07:30:00Z,27.8966,-93.5973,1008.86,11111222 
TABS,ioos:station:wmo:42047:1,2017-06-05T08:00:00Z,27.8966,-93.5973,1008.38,11111222 
TABS,ioos:station:wmo:42047:1,2017-06-05T08:30:00Z,27.8966,-93.5973,1007.66,11111222 
TABS,ioos:station:wmo:42047:1,2017-06-05T09:00:00Z,27.8966,-93.5973,1007.68,11111222 
TABS,ioos:station:wmo:42047:1,2017-06-05T09:30:00Z,27.8966,-93.5973,1007.84,11111222 
TABS,ioos:station:wmo:42047:1,2017-06-05T10:00:00Z,27.8966,-93.5973,1007.71,11111222 
TABS,ioos:station:wmo:42047:1,2017-06-05T10:30:00Z,27.8966,-93.5973,1007.52,11111222 
TABS,ioos:station:wmo:42047:1,2017-06-05T11:00:00Z,27.8966,-93.5973,1007.12,11111222 
TABS,ioos:station:wmo:42047:1,2017-06-05T11:30:00Z,27.8966,-93.5973,1007.39,11111222 
TABS,ioos:station:wmo:42047:1,2017-06-05T12:00:00Z,27.8966,-93.5973,1007.42,11111222 
TABS,ioos:station:wmo:42047:1,2017-06-05T12:30:00Z,27.8966,-93.5973,1007.71,11111222 
TABS,ioos:station:wmo:42047:1,2017-06-05T13:00:00Z,27.8966,-93.5973,1007.96,11111222 
TABS,ioos:station:wmo:42047:1,2017-06-05T13:30:00Z,27.8966,-93.5973,1008.23,11111222 
TABS,ioos:station:wmo:42047:1,2017-06-05T14:00:00Z,27.8966,-93.5973,1008.03,11111222 
TABS,ioos:station:wmo:42047:1,2017-06-05T14:30:00Z,27.8966,-93.5973,1008.03,11111222 
TABS,ioos:station:wmo:42047:1,2017-06-05T15:00:00Z,27.8966,-93.5973,1007.92,11111222 
TABS,ioos:station:wmo:42047:1,2017-06-05T15:30:00Z,27.8966,-93.5973,1007.6,11111222 
TABS,ioos:station:wmo:42047:1,2017-06-05T16:00:00Z,27.8966,-93.5973,1008.1,11111222 
TABS,ioos:station:wmo:42047:1,2017-06-05T16:30:00Z,27.8966,-93.5973,1007.94,11111222 
TABS,ioos:station:wmo:42047:1,2017-06-05T17:00:00Z,27.8966,-93.5973,1007.6,11111222 
TABS,ioos:station:wmo:42047:1,2017-06-05T17:30:00Z,27.8966,-93.5973,1006.93,11111222 
TABS,ioos:station:wmo:42047:1,2017-06-05T18:00:00Z,27.8966,-93.5973,1007.07,11111222 
TABS,ioos:station:wmo:42047:1,2017-06-05T18:30:00Z,27.8966,-93.5973,1006.92,11111222 
TABS,ioos:station:wmo:42047:1,2017-06-05T19:00:00Z,27.8966,-93.5973,1006.74,11111222 
TABS,ioos:station:wmo:42047:1,2017-06-05T19:30:00Z,27.8966,-93.5973,1007.02,11111222 
TABS,ioos:station:wmo:42047:1,2017-06-05T20:00:00Z,27.8966,-93.5973,1006.6,11111222 
TABS,ioos:station:wmo:42047:1,2017-06-05T20:30:00Z,27.8966,-93.5973,1006.07,11111222 
TABS,ioos:station:wmo:42047:1,2017-06-05T21:00:00Z,27.8966,-93.5973,1005.73,11111222 
TABS,ioos:station:wmo:42047:1,2017-06-05T21:30:00Z,27.8966,-93.5973,1004.87,11111222 
TABS,ioos:station:wmo:42047:1,2017-06-05T22:00:00Z,27.8966,-93.5973,1004.87,11111222 
TABS,ioos:station:wmo:42047:1,2017-06-05T22:30:00Z,27.8966,-93.5973,1004.76,11111222 
TABS,ioos:station:wmo:42047:1,2017-06-05T23:00:00Z,27.8966,-93.5973,1004.88,11111222 
TABS,ioos:station:wmo:42047:1,2017-06-05T23:30:00Z,27.8966,-93.5973,1005.16,11111222 
TABS,ioos:station:wmo:42047:1,2017-06-06T00:00:00Z,27.8966,-93.5973,1005.32,11111222 
TABS,ioos:station:wmo:42047:1,2017-06-06T00:30:00Z,27.8966,-93.5973,1005.18,11111222 
TABS,ioos:station:wmo:42047:1,2017-06-06T01:00:00Z,27.8966,-93.5973,1005.69,11111222 
TABS,ioos:station:wmo:42047:1,2017-06-06T01:30:00Z,27.8966,-93.5973,1005.72,11111222 
TABS,ioos:station:wmo:42047:1,2017-06-06T02:00:00Z,27.8966,-93.5973,1006.09,11111222 
TABS,ioos:station:wmo:42047:1,2017-06-06T02:30:00Z,27.8966,-93.5973,1006.44,11111222 
TABS,ioos:station:wmo:42047:1,2017-06-06T03:00:00Z,27.8966,-93.5973,1006.62,11111222 
TABS,ioos:station:wmo:42047:1,2017-06-06T03:30:00Z,27.8966,-93.5973,1006.85,11111222 
TABS,ioos:station:wmo:42047:1,2017-06-06T04:00:00Z,27.8966,-93.5973,1006.99,11111222 
TABS,ioos:station:wmo:42047:1,2017-06-06T04:30:00Z,27.8966,-93.5973,1006.86,11111222 
TABS,ioos:station:wmo:42047:1,2017-06-06T05:00:00Z,27.8966,-93.5973,1006.59,11111222 
TABS,ioos:station:wmo:42047:1,2017-06-06T05:30:00Z,27.8966,-93.5973,1006.48,11111222 
TABS,ioos:station:wmo:42047:1,2017-06-06T06:00:00Z,27.8966,-93.5973,1006.38,11111222 
TABS,ioos:station:wmo:42047:1,2017-06-06T06:30:00Z,27.8966,-93.5973,1006.57,11111222 
TABS,ioos:station:wmo:42047:1,2017-06-06T07:00:00Z,27.8966,-93.5973,1006.42,11111222 
TABS,ioos:station:wmo:42047:1,2017-06-06T07:30:00Z,27.8966,-93.5973,1006.21,11111222 
TABS,ioos:station:wmo:42047:1,2017-06-06T08:00:00Z,27.8966,-93.5973,1006.24,11111222 
TABS,ioos:station:wmo:42047:1,2017-06-06T08:30:00Z,27.8966,-93.5973,1006.28,11111222 
TABS,ioos:station:wmo:42047:1,2017-06-06T09:00:00Z,27.8966,-93.5973,1006.68,11111222 
TABS,ioos:station:wmo:42047:1,2017-06-06T09:30:00Z,27.8966,-93.5973,1006.52,11111222 
TABS,ioos:station:wmo:42047:1,2017-06-06T10:00:00Z,27.8966,-93.5973,1006.72,11111222 
TABS,ioos:station:wmo:42047:1,2017-06-06T10:30:00Z,27.8966,-93.5973,1006.72,11111222 
TABS,ioos:station:wmo:42047:1,2017-06-06T11:00:00Z,27.8966,-93.5973,1006.77,11111222 
TABS,ioos:station:wmo:42047:1,2017-06-06T11:30:00Z,27.8966,-93.5973,1006.99,11111222 
TABS,ioos:station:wmo:42047:1,2017-06-06T12:00:00Z,27.8966,-93.5973,1006.85,11111222 
TABS,ioos:station:wmo:42047:1,2017-06-06T12:30:00Z,27.8966,-93.5973,1007.25,11111222 
TABS,ioos:station:wmo:42047:1,2017-06-06T13:00:00Z,27.8966,-93.5973,1007.3,11111222 
TABS,ioos:station:wmo:42047:1,2017-06-06T13:30:00Z,27.8966,-93.5973,1007.39,11111222 
TABS,ioos:station:wmo:42047:1,2017-06-06T14:00:00Z,27.8966,-93.5973,1007.74,11111222 
TABS,ioos:station:wmo:42047:1,2017-06-06T14:30:00Z,27.8966,-93.5973,1008.0,11111222 
TABS,ioos:station:wmo:42047:1,2017-06-06T15:00:00Z,27.8966,-93.5973,1008.11,11111222 
TABS,ioos:station:wmo:42047:1,2017-06-06T15:30:00Z,27.8966,-93.5973,1007.92,11111222 
TABS,ioos:station:wmo:42047:1,2017-06-06T16:00:00Z,27.8966,-93.5973,1007.98,11111222 
TABS,ioos:station:wmo:42047:1,2017-06-06T16:30:00Z,27.8966,-93.5973,1008.08,11111222 
TABS,ioos:station:wmo:42047:1,2017-06-06T17:00:00Z,27.8966,-93.5973,1007.82,11111222 
TABS,ioos:station:wmo:42047:1,2017-06-06T17:30:00Z,27.8966,-93.5973,1007.96,11111222 
TABS,ioos:station:wmo:42047:1,2017-06-06T18:00:00Z,27.8966,-93.5973,1007.92,11111222 
TABS,ioos:station:wmo:42047:1,2017-06-06T18:30:00Z,27.8966,-93.5973,1007.79,11111222 